Location: Canyam�s
(41.5996°N, 2.4450°E)
Time: 20:45:19
(UTC+00:00)

ATLAS CENTAUR R/B - Pass Details

Date: 10 October 2020
Orbit: 479 x 667 km, 64.7° (Epoch: 12 October)

Event Time Altitude Azimuth Distance (km) Brightness Sun altitude
Rises 18:49:48 0° 332° (NNW) 2,543 5.2 -18.2°
Reaches altitude 10° 18:51:59 10° 338° (NNW) 1,666 4.1 -18.6°
Enters shadow 18:55:24 45° 45° (NE) 674 1.4 -19.3°
